HISPASAT 36W-1

Last updated on Thu Oct 30 2025 00:02:50 GMT+0000 (Coordinated Universal Time)

1 41942U 17006A 25301.75043076 -.00000234 00000+0 00000+0 0 9995 2 41942 0.0021 77.9577 0001016 132.8392 60.7298 1.00271318 31912
UTC large
Height (km)
Speed (km/s)
/
Latitude / Longitude
Inclination (degrees)
Orbital Period (minutes)
Azimuth
Elevation
Range (km)
Doppler Factor

Next 0 passes for location: London (51.5072 / 0.1276)

Sorry there are no passes over London.